sat.trackr.live / text

‹ back to catalog

AISSAT 4

NORAD 68454 · 2026-067AQ

PAYLOAD ACTIVE UNKNOWN

§ Identity

Operator
Country
NOR
Launch date
2026-03-30
Launch site
AFWTR
Launch vehicle
Mass (kg)
RCS (m²)

External: N2YO · Heavens-Above · Gunter

§ Orbital elements

Epoch: 2026-05-24T20:06:45.588096Z

Period
94.90 min
Inclination
97.4558°
Eccentricity
0.0006729
Mean motion
15.17446812 rev/d
Perigee alt
508.9 km
Apogee alt
518.2 km
Semi-major
6,891.7 km
B*
3.1912e-4
RAAN
103.5994°
Arg perigee
131.2753°
Mean anomaly
228.9061°
Rev number
839

§ Raw data

AISSAT 41 68454U 26067AQ  26144.83802764  .00006324  00000+0  31912-3 0  99962 68454  97.4558 103.5994 0006729 131.2753 228.9061 15.17446812  8391

JSON: /api/v1/satellites/68454 · /tle

For live sub-satellite position, see the globe view (requires WebGL).

§ Visibility from observer

Set your observer location to see the next 7 days of passes ≥ 10°. The values pass through the URL so the page stays shareable.

No JS? Fill the form by hand. The geolocation button needs JavaScript.